Location: Burera
(21.3780°N, 81.9534°E)
Time: 11:31:14
(UTC+00:00)

Cosmos 1980 Rocket - Pass Details

Date: 13 August 2020
Orbit: 829 x 849 km, 71.0° (Epoch: 22 September)

Event Time Altitude Azimuth Distance (km) Brightness Sun altitude
Rises 14:20:13 0° 10° (N) 3,395 5.5 -17.6°
Reaches altitude 10° 14:24:13 10° 38° (NE) 2,453 4.5 -18.4°
Enters shadow 14:26:09 13° 58° (ENE) 2,260 4.1 -18.8°
